Weather History for LTAC - September, 2012

Change the Weather History Date:

Monday, September 3, 2012

  Actual Average Record
Temperature  
Mean Temperature 68 °F -  
Max Temperature 84 °F 73 °F 93 °F (2007)
Min Temperature 52 °F 45 °F 42 °F (1998)
Cooling Degree Days 3    
Growing Degree Days 18 (Base 50)    
Moisture  
Dew Point 44 °F    
Average Humidity 46    
Maximum Humidity 82    
Minimum Humidity 8    
Precipitation  
Precipitation 0.00 in - - ()
Sea Level Pressure  
Sea Level Pressure 30.11 in    
Wind  
Wind Speed 8 mph ()    
Max Wind Speed 15 mph    
Max Gust Speed 25 mph    
Visibility 7.3 miles    
Events      
Averages and records for this station are not official NWS values.
T = Trace of Precipitation, MM = Missing Value Source: Averaged Metar Reports

Daily Weather History Graph

Daily Weather History Graph

Search for Another Location

Airport or City:

Trip Planner

Search our weather history database for the weather conditions in past years. The results will help you decide how hot, cold, wet, or windy it might be!

Date:

Astronomy

Sep. 03, 2012 Rise Set
Actual Time 6:17 AM EEST 7:16 PM EEST
Civil Twilight 5:49 AM EEST 7:43 PM EEST
Nautical Twilight 5:16 AM EEST 8:16 PM EEST
Astronomical Twilight 4:42 AM EEST 8:50 PM EEST
Moon 8:24 PM EEST (9/3) 9:05 AM EEST (9/3)
Length of Visible Light 13h 53m
Length of Day
12h 58m
Waning Gibbous, 92% of the Moon is Illuminated
Sep 3
Waning Gibbous
Sep 8
Last Quarter
Sep 16
New
Sep 22
First Quarter
Sep 30
Full

Hourly Weather History & Observations

Time (EEST) Temp. Dew Point Humidity Pressure Visibility Wind Dir Wind Speed Gust Speed Precip Events Conditions
12:20 AM 64.4 °F 51.8 °F 64% 30.18 in - NNE 9.2 mph - N/A   Clear
12:50 AM 62.6 °F 51.8 °F 68% 30.18 in - NNE 11.5 mph - N/A   Clear
1:20 AM 62.6 °F 51.8 °F 68% 30.18 in - NNE 9.2 mph - N/A   Clear
1:50 AM 60.8 °F 51.8 °F 72% 30.18 in - NNE 9.2 mph - N/A   Clear
2:20 AM 60.8 °F 51.8 °F 72% 30.18 in - NNE 11.5 mph - N/A   Clear
2:50 AM 60.8 °F 51.8 °F 72% 30.18 in - North 6.9 mph - N/A   Clear
3:00 AM 60 °F 51 °F 64% 30.06 in 12 mi North 6.9 mph - -  
3:20 AM 59.0 °F 50.0 °F 72% 30.18 in - North 6.9 mph - N/A   Clear
3:50 AM 59.0 °F 50.0 °F 72% 30.18 in - North 6.9 mph - N/A   Clear
4:20 AM 57.2 °F 50.0 °F 77% 30.18 in - North 6.9 mph - N/A   Clear
4:50 AM 57.2 °F 50.0 °F 77% 30.18 in - North 6.9 mph - N/A   Clear
5:20 AM 55.4 °F 48.2 °F 77% 30.18 in - North 3.5 mph - N/A   Clear
5:50 AM 53.6 °F 48.2 °F 82% 30.15 in - NNE 6.9 mph - N/A   Clear
6:20 AM 55.4 °F 50.0 °F 82% 30.18 in - NNE 8.1 mph - N/A   Clear
6:50 AM 55.4 °F 50.0 °F 82% 30.18 in - NNE 6.9 mph - N/A   Clear
7:20 AM 57.2 °F 50.0 °F 77% 30.18 in - North 9.2 mph - N/A   Clear
7:50 AM 59.0 °F 50.0 °F 72% 30.18 in - NNE 10.4 mph - N/A   Clear
8:20 AM 59.0 °F 50.0 °F 72% 30.18 in - North 9.2 mph - N/A   Clear
8:50 AM 62.6 °F 50.0 °F 63% 30.15 in - NNE 9.2 mph - N/A   Clear
9:00 AM 62 °F 50 °F 56% 30.05 in 12 mi NNE 9.2 mph - -  
9:20 AM 64.4 °F 50.0 °F 59% 30.15 in - NNE 11.5 mph - N/A   Clear
9:50 AM 66.2 °F 50.0 °F 56% 30.15 in - NNE 15.0 mph - N/A   Clear
10:50 AM 69.8 °F 46.4 °F 43% 30.15 in 6.2 mi ENE 10.4 mph - N/A   Partly Cloudy
11:20 AM 71.6 °F 46.4 °F 41% 30.15 in 6.2 mi East 8.1 mph - N/A   Partly Cloudy
11:50 AM 73.4 °F 44.6 °F 36% 30.12 in 6.2 mi NE 9.2 mph - N/A   Partly Cloudy
12:20 PM 77.0 °F 44.6 °F 32% 30.12 in 6.2 mi NNE 11.5 mph - N/A   Partly Cloudy
12:50 PM 77.0 °F 41.0 °F 28% 30.09 in 6.2 mi ENE 11.5 mph - N/A   Partly Cloudy
1:20 PM 78.8 °F 39.2 °F 24% 30.09 in 6.2 mi NE 12.7 mph - N/A   Partly Cloudy
1:50 PM 80.6 °F 37.4 °F 21% 30.09 in 6.2 mi ENE 9.2 mph 25.3 mph N/A   Partly Cloudy
2:20 PM 80.6 °F 37.4 °F 21% 30.09 in 6.2 mi ENE 9.2 mph - N/A   Partly Cloudy
2:50 PM 82.4 °F 32.0 °F 16% 30.06 in 6.2 mi ENE 8.1 mph - N/A   Partly Cloudy
3:00 PM 82 °F 31 °F 8% 29.93 in 12 mi ENE 8.1 mph - -   Scattered Clouds
3:20 PM 82.4 °F 28.4 °F 14% 30.06 in 6.2 mi ENE 12.7 mph - N/A   Partly Cloudy
3:50 PM 82.4 °F 28.4 °F 14% 30.06 in 6.2 mi East 11.5 mph - N/A   Partly Cloudy
4:20 PM 84.2 °F 30.2 °F 14% 30.04 in 6.2 mi East 10.4 mph - N/A   Partly Cloudy
4:50 PM 84.2 °F 32.0 °F 15% 30.04 in 6.2 mi East 9.2 mph - N/A   Partly Cloudy
5:20 PM 84.2 °F 33.8 °F 16% 30.04 in 6.2 mi East 11.5 mph - N/A   Partly Cloudy
5:50 PM 84.2 °F 33.8 °F 16% 30.04 in 6.2 mi East 9.2 mph - N/A   Partly Cloudy
6:20 PM 82.4 °F 35.6 °F 19% 30.04 in 6.2 mi ENE 10.4 mph - N/A   Partly Cloudy
6:50 PM 80.6 °F 37.4 °F 21% 30.04 in 6.2 mi East 9.2 mph - N/A   Partly Cloudy
7:20 PM 78.8 °F 37.4 °F 23% 30.04 in 6.2 mi East 9.2 mph - N/A   Partly Cloudy
7:50 PM 75.2 °F 39.2 °F 27% 30.04 in - North 5.8 mph - N/A   Clear
8:20 PM 75.2 °F 41.0 °F 29% 30.06 in - NNE 6.9 mph - N/A   Clear
8:50 PM 73.4 °F 41.0 °F 31% 30.06 in - North 6.9 mph - N/A   Clear
9:00 PM 73 °F 40 °F 19% 29.94 in 12 mi North 6.9 mph - -  
9:20 PM 69.8 °F 39.2 °F 33% 30.06 in - North 8.1 mph - N/A   Clear
9:50 PM 68.0 °F 41.0 °F 37% 30.06 in - NNE 8.1 mph - N/A   Clear
10:20 PM 66.2 °F 39.2 °F 37% 30.06 in - NNE 8.1 mph - N/A   Clear
10:50 PM 68.0 °F 42.8 °F 40% 30.06 in - NE 10.4 mph - N/A   Clear
11:20 PM 68.0 °F 44.6 °F 43% 30.06 in - NNE 11.5 mph - N/A   Clear
11:50 PM 66.2 °F 48.2 °F 52% 30.09 in - NNE 11.5 mph - N/A   Clear